GW4449 Weather Reports


time (UTC)temp
C
wind
direction
speed
KPH
gust
KPH
rain 1hr
cm
rain 24hr
cm
rain mn
cm
humidity
%
barometer
mb
20260507051526 13 9 0.0 6.4 0.00 0.00 0.00 75 1023.1
20260507051008 13 5 1.6 6.4 0.00 0.00 0.00 75 1023.1
20260507050508 13 329 1.6 4.8 0.00 0.00 0.00 75 1023.0
20260507050028 13 360 0.0 4.8 0.00 0.00 0.00 75 1023.1
20260507045509 13 14 1.6 8.0 0.00 0.00 0.00 75 1023.1
20260507045011 13 26 0.0 8.0 0.00 0.00 0.00 75 1023.1
20260507044544 13 352 0.0 8.0 0.00 0.00 0.00 75 1023.1
20260507044009 13 10 0.0 12.9 0.00 0.00 0.00 75 1023.0
20260507043511 13 11 1.6 12.9 0.00 0.00 0.00 75 1023.0
20260507043026 13 5 3.2 8.0 0.00 0.00 0.00 75 1023.0
20260507042507 13 5 1.6 9.7 0.00 0.00 0.00 75 1022.9
20260507042012 13 348 3.2 9.7 0.00 0.00 0.00 74 1022.9
20260507041522 13 352 3.2 9.7 0.00 0.00 0.00 74 1022.9
20260507041007 14 349 3.2 9.7 0.00 0.00 0.00 74 1022.8
20260507040507 14 350 3.2 9.7 0.00 0.00 0.00 74 1022.7
20260507040033 14 344 3.2 9.7 0.00 0.00 0.00 74 1022.6
20260507035507 14 5 1.6 11.3 0.00 0.00 0.00 74 1022.6
20260507035012 14 19 4.8 12.9 0.00 0.00 0.00 74 1022.5
20260507034533 14 15 1.6 12.9 0.00 0.00 0.00 73 1022.5
20260507034010 14 360 3.2 11.3 0.00 0.00 0.00 73 1022.4
20260507033511 15 352 3.2 8.0 0.00 0.00 0.00 73 1022.3
20260507033028 15 352 3.2 11.3 0.00 0.00 0.00 73 1022.3
20260507032511 15 5 3.2 11.3 0.00 0.00 0.00 73 1022.2
20260507032012 15 329 3.2 8.0 0.00 0.00 0.00 73 1022.1
20260507031521 15 337 4.8 9.7 0.00 0.00 0.00 73 1022.1
20260507031007 15 351 3.2 9.7 0.00 0.00 0.00 72 1022.0
20260507030513 15 5 1.6 6.4 0.00 0.00 0.00 72 1021.9
20260507030026 15 20 3.2 9.7 0.00 0.00 0.00 72 1021.9
20260507025508 16 352 3.2 9.7 0.00 0.00 0.00 71 1021.9
20260507025012 16 352 1.6 4.8 0.00 0.00 0.00 71 1021.8
20260507024528 16 19 0.0 6.4 0.00 0.00 0.00 71 1021.7
20260507024009 16 13 3.2 9.7 0.00 0.00 0.00 71 1021.7
20260507023513 16 16 3.2 9.7 0.00 0.00 0.00 71 1021.6
20260507023027 16 347 3.2 8.0 0.00 0.00 0.00 71 1021.7
20260507022513 16 5 3.2 8.0 0.00 0.00 0.00 70 1021.6
20260507022015 16 22 3.2 12.9 0.00 0.00 0.00 70 1021.5
20260507021523 16 9 4.8 12.9 0.00 0.00 0.00 69 1021.6
20260507021009 16 11 3.2 11.3 0.00 0.00 0.00 69 1021.6
20260507020510 17 9 6.4 12.9 0.00 0.00 0.00 68 1021.6
20260507020035 17 5 4.8 12.9 0.00 0.00 0.00 68 1021.6
20260507015508 17 360 4.8 8.0 0.00 0.00 0.00 66 1021.6
20260507015011 17 352 1.6 9.7 0.00 0.00 0.00 66 1021.6
20260507014506 17 34 0.0 11.3 0.00 0.00 0.00 67 1021.6
20260507014004 17 12 6.4 11.3 0.00 0.00 0.00 67 1021.7
20260507013504 17 17 1.6 12.9 0.00 0.00 0.00 68 1021.8
20260507013012 17 18 4.8 17.7 0.00 0.00 0.00 67 1021.8
20260507012505 17 348 3.2 17.7 0.00 0.00 0.00 67 1021.8
20260507012006 17 40 4.8 16.1 0.00 0.00 0.00 66 1021.7
20260507011519 18 352 3.2 16.1 0.00 0.00 0.00 66 1021.7
20260507011007 18 351 4.8 14.5 0.00 0.00 0.00 65 1021.7
20260507010507 18 5 3.2 9.7 0.00 0.00 0.00 64 1021.6
20260507010027 18 340 1.6 14.5 0.00 0.00 0.00 64 1021.5
20260507005509 19 19 4.8 16.1 0.00 0.00 0.00 63 1021.6
20260507005009 19 30 3.2 16.1 0.00 0.00 0.00 62 1021.5
20260507004532 20 63 1.6 12.9 0.00 0.00 0.00 62 1021.5
20260507004008 19 40 0.0 12.9 0.00 0.00 0.00 63 1021.5
20260507003512 20 20 1.6 12.9 0.00 0.00 0.00 62 1021.5
20260507003019 20 63 1.6 12.9 0.00 0.00 0.00 62 1021.4
20260507002505 20 18 4.8 12.9 0.00 0.00 0.00 63 1021.4
20260507002004 20 38 4.8 11.3 0.00 0.00 0.00 62 1021.4
20260507001523 20 9 3.2 16.1 0.00 0.00 0.00 62 1021.4
20260507001007 20 53 4.8 16.1 0.00 0.00 0.00 63 1021.5
20260507000506 20 60 1.6 14.5 0.00 0.00 0.00 64 1021.4
20260507000023 20 10 4.8 14.5 0.00 0.00 0.00 65 1021.4
20260506235507 20 352 4.8 14.5 0.00 0.00 0.00 65 1021.3
20260506235008 20 25 4.8 16.1 0.00 0.00 0.00 64 1021.3
20260506234524 20 345 6.4 16.1 0.00 0.00 0.00 63 1021.2
20260506234010 21 44 0.0 8.0 0.00 0.00 0.00 63 1021.1
20260506233508 20 67 3.2 9.7 0.00 0.00 0.00 64 1021.1
20260506233030 20 22 3.2 9.7 0.00 0.00 0.00 63 1021.0
20260506232509 21 12 1.6 6.4 0.00 0.00 0.00 60 1021.0
20260506232006 20 335 0.0 3.2 0.00 0.00 0.00 60 1021.1
20260506231514 21 185 0.0 3.2 0.00 0.00 0.00 60 1021.0
20260506231006 21 93 1.6 4.8 0.00 0.00 0.00 59 1021.2
20260506230505 21 321 0.0 4.8 0.00 0.00 0.00 60 1021.1
20260506230020 21 352 0.0 8.0 0.00 0.00 0.00 59 1021.3
20260506225507 20 345 0.0 8.0 0.00 0.00 0.00 60 1021.4
20260506225010 20 136 0.0 6.4 0.00 0.00 0.00 61 1021.5
20260506224524 20 126 0.0 6.4 0.00 0.00 0.00 61 1021.6
20260506224010 20 94 0.0 3.2 0.00 0.00 0.00 60 1021.7
20260506223511 21 108 0.0 4.8 0.00 0.00 0.00 61 1021.7
20260506223026 20 192 3.2 4.8 0.00 0.00 0.00 61 1021.8
20260506222513 20 80 0.0 6.4 0.00 0.00 0.00 61 1021.8
20260506222010 20 157 3.2 6.4 0.00 0.00 0.00 61 1021.8
20260506221530 20 110 1.6 4.8 0.00 0.00 0.00 61 1021.8
20260506221009 20 309 0.0 6.4 0.00 0.00 0.00 62 1021.8
20260506220504 20 143 3.2 6.4 0.00 0.00 0.00 61 1021.8
20260506220016 20 300 0.0 4.8 0.00 0.00 0.00 63 1021.8
20260506215507 20 352 1.6 4.8 0.00 0.00 0.00 60 1021.8
20260506215007 20 5 0.0 4.8 0.00 0.00 0.00 63 1021.9
20260506214524 20 15 0.0 4.8 0.00 0.00 0.00 62 1021.8
20260506214012 20 57 0.0 9.7 0.00 0.00 0.00 64 1021.8
20260506213508 20 27 1.6 9.7 0.00 0.00 0.00 64 1021.8
20260506213026 19 307 1.6 6.4 0.00 0.00 0.00 64 1021.8
20260506212509 19 99 1.6 11.3 0.00 0.00 0.00 64 1021.9
20260506212016 19 127 4.8 11.3 0.00 0.00 0.00 65 1022.1
20260506211532 19 155 3.2 12.9 0.00 0.00 0.00 65 1022.1
20260506211008 18 118 3.2 12.9 0.00 0.00 0.00 67 1022.2
20260506210510 18 136 3.2 11.3 0.00 0.00 0.00 66 1022.3
20260506210028 18 90 3.2 11.3 0.00 0.00 0.00 66 1022.3
20260506205511 18 112 4.8 9.7 0.00 0.00 0.00 66 1022.3
20260506205007 18 192 1.6 8.0 0.00 0.00 0.00 64 1022.3
20260506204522 18 176 3.2 9.7 0.00 0.00 0.00 64 1022.3
20260506204008 18 50 0.0 9.7 0.00 0.00 0.00 65 1022.3
20260506203509 18 186 1.6 14.5 0.00 0.00 0.00 64 1022.3
20260506203028 18 200 1.6 14.5 0.00 0.00 0.00 64 1022.2
20260506202509 19 138 3.2 8.0 0.00 0.00 0.00 65 1022.2
20260506202018 18 179 4.8 8.0 0.00 0.00 0.00 64 1022.2
20260506201525 19 209 0.0 11.3 0.00 0.00 0.00 63 1022.1
20260506201010 19 167 4.8 11.3 0.00 0.00 0.00 64 1022.2
20260506200515 18 155 1.6 6.4 0.00 0.00 0.00 66 1022.3
20260506200030 18 138 1.6 4.8 0.00 0.00 0.00 68 1022.4
20260506195510 17 127 1.6 4.8 0.00 0.00 0.00 70 1022.4
20260506195014 17 121 1.6 4.8 0.00 0.00 0.00 71 1022.5
20260506194530 17 209 0.0 3.2 0.00 0.00 0.00 71 1022.5
20260506194009 17 329 0.0 4.8 0.00 0.00 0.00 71 1022.6
20260506193507 17 98 0.0 4.8 0.00 0.00 0.00 72 1022.6
20260506193024 17 109 1.6 4.8 0.00 0.00 0.00 71 1022.7
20260506192506 17 159 1.6 3.2 0.00 0.00 0.00 71 1022.6
20260506192008 17 215 0.0 4.8 0.00 0.00 0.00 71 1022.6
20260506191534 17 273 1.6 6.4 0.00 0.00 0.00 71 1022.6
20260506191007 17 251 1.6 6.4 0.00 0.00 0.00 71 1022.5
20260506190508 17 317 0.0 4.8 0.00 0.00 0.00 72 1022.5
20260506190030 16 105 1.6 4.8 0.00 0.00 0.00 72 1022.5
20260506185506 16 136 0.0 4.8 0.00 0.00 0.00 72 1022.5
20260506185012 16 188 1.6 3.2 0.00 0.00 0.00 73 1022.5
20260506184532 16 55 0.0 4.8 0.00 0.00 0.00 72 1022.5
20260506184011 16 101 1.6 4.8 0.00 0.00 0.00 73 1022.5
20260506183511 16 157 1.6 4.8 0.00 0.00 0.00 72 1022.4
20260506183032 16 100 1.6 11.3 0.00 0.00 0.00 73 1022.4
20260506182506 16 161 3.2 8.0 0.00 0.00 0.00 74 1022.3
20260506182011 16 234 1.6 6.4 0.00 0.00 0.00 74 1022.4
20260506181525 16 219 3.2 6.4 0.00 0.00 0.00 75 1022.5
20260506181010 16 198 1.6 4.8 0.00 0.00 0.00 75 1022.5
20260506180509 16 80 0.0 8.0 0.00 0.00 0.00 76 1022.5
20260506180031 15 211 1.6 8.0 0.00 0.00 0.00 76 1022.5
20260506175510 15 159 4.8 8.0 0.00 0.00 0.00 76 1022.5
20260506175012 15 181 1.6 6.4 0.00 0.00 0.00 78 1022.5
20260506174533 15 184 3.2 6.4 0.00 0.00 0.00 78 1022.6
20260506174009 15 227 1.6 6.4 0.00 0.00 0.00 79 1022.5
20260506173512 15 212 3.2 6.4 0.00 0.00 0.00 79 1022.5
20260506173030 15 217 1.6 6.4 0.00 0.00 0.00 79 1022.4
20260506172509 15 211 0.0 4.8 0.00 0.00 0.00 78 1022.4
20260506172014 15 329 0.0 3.2 0.00 0.00 0.00 80 1022.3
20260506171524 15 145 0.0 3.2 0.00 0.00 0.00 80 1022.2
20260506171008 14 258 1.6 4.8 0.00 0.00 0.00 80 1022.2
20260506170509 14 183 1.6 4.8 0.00 0.00 0.00 80 1022.2
20260506170036 14 161 1.6 3.2 0.00 0.00 0.00 80 1022.2
20260506165504 14 146 1.6 3.2 0.00 0.00 0.00 80 1022.3
20260506165004 14 182 1.6 3.2 0.00 0.00 0.00 81 1022.4
20260506164512 14 94 0.0 3.2 0.00 0.00 0.00 81 1022.5
20260506164009 14 115 0.0 3.2 0.00 0.00 0.00 81 1022.4
20260506163507 14 174 0.0 3.2 0.00 0.00 0.00 1022.3
20260506163018 14 148 1.6 3.2 0.00 0.00 0.00 1022.3
20260506162509 14 140 0.0 1.6 0.00 0.00 0.00 81 1022.4
20260506162011 14 144 0.0 4.8 0.00 0.00 0.00 81 1022.4
20260506161520 14 179 0.0 6.4 0.00 0.00 0.00 81 1022.4
20260506161009 13 150 1.6 8.0 0.00 0.00 0.00 81 1022.2
20260506160510 13 115 3.2 8.0 0.00 0.00 0.00 81 1022.1
20260506160030 14 142 1.6 4.8 0.00 0.00 0.00 81 1022.0
20260506155509 14 101 1.6 6.4 0.00 0.00 0.00 81 1022.0
20260506155014 14 147 1.6 6.4 0.00 0.00 0.00 81 1021.9
20260506154507 13 170 0.0 6.4 0.00 0.00 0.00 82 1021.7
20260506154004 13 120 0.0 4.8 0.00 0.00 0.00 82 1021.8
20260506153503 13 201 1.6 4.8 0.00 0.00 0.00 82 1021.6
20260506153012 13 128 3.2 8.0 0.00 0.00 0.00 82 1021.6
20260506152506 13 142 4.8 8.0 0.00 0.00 0.00 82 1021.5
20260506152008 13 164 3.2 6.4 0.00 0.00 0.00 82 1021.9
20260506151530 13 184 0.0 3.2 0.00 0.00 0.00 83 1022.1
20260506151009 13 167 0.0 3.2 0.00 0.00 0.00 83 1022.2
20260506150507 13 202 0.0 3.2 0.00 0.00 0.00 82 1022.3
20260506150022 13 284 0.0 3.2 0.00 0.00 0.00 82 1022.3
20260506145512 13 308 0.0 1.6 0.00 0.00 0.00 83 1022.3
20260506145009 13 308 0.0 3.2 0.00 0.00 0.00 82 1022.2
20260506144525 13 5 0.0 3.2 0.00 0.00 0.00 82 1022.2
20260506144015 13 38 0.0 3.2 0.00 0.00 0.00 82 1022.1
20260506143514 13 162 0.0 3.2 0.00 0.00 0.00 81 1022.0
20260506143010 13 172 0.0 3.2 0.00 0.00 0.00 81 1022.0
20260506142505 13 174 1.6 3.2 0.00 0.00 0.00 81 1022.0
20260506142006 13 179 0.0 3.2 0.00 0.00 0.00 82 1021.8
20260506141519 13 165 1.6 3.2 0.00 0.00 0.00 82 1021.7
20260506141007 13 104 0.0 3.2 0.00 0.00 0.00 82 1021.5
20260506140508 13 98 1.6 3.2 0.00 0.00 0.00 82 1021.4
20260506140027 13 147 0.0 3.2 0.00 0.00 0.00 82 1021.4
20260506135507 13 183 0.0 3.2 0.00 0.00 0.00 82 1021.5
20260506135010 13 138 0.0 3.2 0.00 0.00 0.00 82 1021.4
20260506134526 13 186 0.0 3.2 0.00 0.00 0.00 82 1021.4
20260506134010 13 196 0.0 3.2 0.00 0.00 0.00 82 1021.4
20260506133513 13 166 0.0 4.8 0.00 0.00 0.00 82 1021.2
20260506133040 13 144 1.6 4.8 0.00 0.00 0.00 82 1021.3
20260506132510 13 157 0.0 3.2 0.00 0.00 0.00 82 1021.3
20260506132015 13 142 0.0 3.2 0.00 0.00 0.00 82 1021.2
20260506131520 13 191 0.0 3.2 0.00 0.00 0.00 83 1021.2
20260506131006 13 174 0.0 3.2 0.00 0.00 0.00 83 1021.1
20260506130507 13 134 0.0 3.2 0.00 0.00 0.00 83 1020.9
20260506130022 13 198 0.0 3.2 0.00 0.00 0.00 83 1020.9
20260506125507 13 170 0.0 3.2 0.00 0.00 0.00 83 1020.9
20260506125009 13 170 0.0 3.2 0.00 0.00 0.00 83 1020.9
20260506124525 13 170 0.0 3.2 0.00 0.00 0.00 83 1020.8
20260506124007 13 170 0.0 3.2 0.00 0.00 0.00 83 1020.8
20260506123510 13 136 0.0 3.2 0.00 0.00 0.00 83 1020.7
20260506123028 13 144 0.0 3.2 0.00 0.00 0.00 82 1020.7
20260506122509 13 151 0.0 3.2 0.00 0.00 0.00 82 1020.7
20260506122012 13 250 0.0 1.6 0.00 0.00 0.00 82 1020.9
20260506121530 13 298 0.0 3.2 0.00 0.00 0.00 82 1020.9
20260506121017 13 298 0.0 3.2 0.00 0.00 0.00 82 1020.8
20260506120511 13 303 0.0 3.2 0.00 0.00 0.00 82 1020.9
20260506120032 13 304 0.0 3.2 0.00 0.00 0.00 82 1020.8
20260506115507 13 309 0.0 3.2 0.00 0.00 0.00 82 1020.8
20260506115009 13 309 0.0 3.2 0.00 0.00 0.00 82 1020.7
20260506114522 13 314 0.0 3.2 0.00 0.00 0.00 82 1020.7
20260506114006 13 329 0.0 3.2 0.00 0.00 0.00 82 1020.6
20260506113508 13 319 0.0 3.2 0.00 0.00 0.00 82 1020.6
20260506113026 13 294 0.0 3.2 0.00 0.00 0.00 82 1020.5
20260506112511 13 305 0.0 3.2 0.00 0.00 0.00 82 1020.5
20260506112013 13 292 0.0 3.2 0.00 0.00 0.00 82 1020.5
20260506111528 13 341 1.6 3.2 0.00 0.00 0.00 82 1020.5
20260506111010 13 347 1.6 3.2 0.00 0.00 0.00 82 1020.4
20260506110516 13 307 0.0 3.2 0.00 0.00 0.00 82 1020.2
20260506110034 14 313 0.0 3.2 0.00 0.00 0.00 82 1020.1
20260506105511 14 319 0.0 3.2 0.00 0.00 0.00 83 1020.1
20260506105007 14 321 0.0 3.2 0.00 0.00 0.00 83 1019.9
20260506104520 14 267 0.0 3.2 0.00 0.00 0.00 83 1019.9
20260506104007 14 267 0.0 3.2 0.00 0.00 0.00 83 1019.8
20260506103508 14 267 0.0 3.2 0.00 0.00 0.00 83 1019.8
20260506103030 14 267 0.0 3.2 0.00 0.00 0.00 83 1019.7
20260506102508 14 267 0.0 3.2 0.00 0.00 0.00 83 1019.7
20260506102011 14 267 0.0 3.2 0.00 0.00 0.00 83 1019.7
20260506101538 14 215 0.0 3.2 0.00 0.00 0.00 83 1019.6
20260506101014 14 215 0.0 3.2 0.00 0.00 0.00 82 1019.5
20260506100510 14 216 0.0 3.2 0.00 0.00 0.00 82 1019.5
20260506100032 14 218 1.6 3.2 0.00 0.00 0.00 82 1019.5
20260506095509 14 229 0.0 3.2 0.00 0.00 0.00 82 1019.4
20260506095009 14 229 0.0 3.2 0.00 0.00 0.00 82 1019.4
20260506094530 14 229 0.0 3.2 0.00 0.00 0.00 82 1019.4
20260506094010 14 242 0.0 3.2 0.00 0.00 0.00 82 1019.3
20260506093507 15 242 0.0 3.2 0.00 0.00 0.00 81 1019.2
20260506093024 15 242 0.0 3.2 0.00 0.00 0.00 81 1019.1
20260506092510 15 329 0.0 3.2 0.00 0.00 0.00 81 1019.2
20260506092011 15 329 0.0 3.2 0.00 0.00 0.00 81 1019.2
20260506091526 15 329 0.0 0.0 0.00 0.00 0.00 81 1019.1
20260506091007 15 329 0.0 3.2 0.00 0.00 0.00 81 1019.1
20260506090511 15 329 0.0 3.2 0.00 0.00 0.00 80 1019.0
20260506090030 15 342 0.0 3.2 0.00 0.00 0.00 80 1019.0
20260506085508 15 342 0.0 0.0 0.00 0.00 0.00 81 1018.9
20260506085010 15 342 0.0 3.2 0.00 0.00 0.00 81 1018.9
20260506084538 15 342 0.0 3.2 0.00 0.00 0.00 81 1018.9
20260506084009 15 342 0.0 0.0 0.00 0.00 0.00 80 1018.9
20260506083517 15 342 0.0 0.0 0.00 0.00 0.00 80 1018.9
20260506083031 15 342 0.0 3.2 0.00 0.00 0.00 79 1018.9
20260506082507 15 342 0.0 3.2 0.00 0.00 0.00 80 1018.9
20260506082013 15 342 0.0 0.0 0.00 0.00 0.00 80 1018.9
20260506081528 15 342 0.0 0.0 0.00 0.00 0.00 79 1018.9
20260506081010 15 342 0.0 0.0 0.00 0.00 0.00 79 1018.9
20260506080504 15 342 0.0 0.0 0.00 0.00 0.00 79 1018.9
20260506073506 15 342 0.0 3.2 0.00 0.00 0.00 78 1018.8
20260506073020 15 341 0.0 3.2 0.00 0.00 0.00 78 1018.7
20260506072512 15 342 0.0 3.2 0.00 0.00 0.00 78 1018.7
20260506072010 15 342 0.0 0.0 0.00 0.00 0.00 78 1018.6
20260506071522 15 342 0.0 0.0 0.00 0.00 0.00 79 1018.7
20260506071010 15 342 0.0 1.6 0.00 0.00 0.00 79 1018.7
20260506070507 15 342 0.0 3.2 0.00 0.00 0.00 79 1018.6
20260506062509 15 99 0.0 0.0 0.00 0.00 0.00 1018.4
20260506062008 15 99 0.0 0.0 0.00 0.00 0.00 1018.4
20260506061523 15 99 0.0 0.0 0.00 0.00 0.00 78 1018.4
20260506061011 15 99 0.0 0.0 0.00 0.00 0.00 78 1018.4
20260506060510 15 99 0.0 0.0 0.00 0.00 0.00 78 1018.4